Regional Weather Roundup
Issued by NWS Columbia, SC

Home | Current Version | Previous Version | Text Only | Print | Product List | Glossary On
Versions: 1 2 3 4 5 6 7 8 9 10 11 12 13 14 15 16 17 18 19 20 21 22 23 24 25 26 27 28 29 30 31 32 33 34 35 36 37 38 39 40 41 42 43 44 45 46 47 48 49 50
000
ASUS42 KCAE 090810
RWRCAE
REGIONAL WEATHER ROUNDUP
NATIONAL WEATHER SERVICE COLUMBIA SC
300 AM EST TUE FEB 09 2016

NOTE: "FAIR" INDICATES FEW OR NO CLOUDS BELOW 12,000 FEET WITH NO
SIGNIFICANT WEATHER AND/OR OBSTRUCTIONS TO VISIBILITY.

NOT ALL STATIONS ARE QUALITY CONTROLLED BY THE NATIONAL
WEATHER SERVICE. USE DATA WITH CAUTION...ESPECIALLY
DEWPOINT OBSERVATIONS.

SCZ001>056-GAZ040-063>065-077-090900-
...UPSTATE SOUTH CAROLINA...

CITY           SKY/WX    TMP DP  RH WIND       PRES   REMARKS
ANDERSON       PTCLDY    35  18  49 W14G25    29.73F WCI  26
LIBERTY        SUNNY     32  16  51 NW9       29.71S WCI  25
SPARTANBURG    PTCLDY    32  19  59 W12       29.68S WCI  23
CLEMSON        PTCLDY    35  18  49 W12       29.73F WCI  27
GREENVILLE     CLEAR     34  15  46 W13       29.70R WCI  25
GREENWOOD      CLEAR     35  19  52 W9G22     29.74F WCI  28
GREER          PTCLDY    33  17  51 W15G22    29.68R WCI  23
ROCK HILL      CLEAR     32  25  75 SW7       29.66S WCI  26
LAURENS        MOSUNNY   34  21  60 W10G16    29.71S WCI  26


...CENTRAL SOUTH CAROLINA...

CITY           SKY/WX    TMP DP  RH WIND       PRES   REMARKS
COLUMBIA APT   CLEAR     38  25  59 SW8       29.72S WCI  32
COLUMBIA OWENS CLEAR     39  25  57 W8        29.73S WCI  33
MCENTIRE ANGB  CLEAR     36  26  66 W7        29.71S WCI  30
ORANGEBURG     CLEAR     40  25  55 W12       29.74S WCI  33
SUMTER SHAW    CLEAR     38  26  62 W10       29.69R WCI  30
NEWBERRY       SUNNY     36  25  64 W14G21    29.75R WCI  27
AIKEN          FAIR      36  19  51 W14G20    29.78S WCI  27
BARNWELL       FAIR      39  28  65 W8        29.77S WCI  34
CAMDEN         CLOUDY    37  37 100 W9        29.70  WCI  31
LANCASTER        N/A     32  28  86 SW7       29.68S WCI  26
WINNSBORO      SUNNY     34  27  75 SW5       29.69S WCI  30


...EASTERN AND COASTAL SOUTH CAROLINA...

CITY           SKY/WX    TMP DP  RH WIND       PRES   REMARKS
MYRTLE BEACH   CLEAR     43  30  61 W10G18    29.69S
N MYRTLE BCH   CLEAR     43  36  76 W9        29.65S
CONWAY         FAIR      39  32  75 SW6       29.68R WCI  35
MARION         FAIR      37  32  81 W7        29.66S WCI  32
HARTSVILLE     CLOUDY    36  32  87 W3        29.66S
FLORENCE       PTCLDY    39  30  70 W8        29.67R WCI  33
DARLINGTON     CLOUDY    37  30  75 W13       29.67S WCI  29
CHARLESTON APT CLEAR     40  32  73 W10       29.75S WCI  33
MOUNT PLEASANT FAIR      43  32  65 W12       29.75R
WALTERBORO     SUNNY     41  32  70 W10       29.78R
BEAUFORT       CLEAR     41  31  67 W10       29.80R


...EASTERN GEORGIA...

CITY           SKY/WX    TMP DP  RH WIND       PRES   REMARKS
AUGUSTA BUSH F CLEAR     39  22  50 NW15      29.79S WCI  31
AUGUSTA DANIEL CLEAR     39  21  48 W9        29.79S WCI  33
THOMSON        CLEAR     34  28  76 W3        29.84S
WASHINGTON     FAIR      39  30  70 W6        29.78F WCI  35
CLAXTON        FAIR      40  33  75 SW6       29.84S
SYLVANIA       MOSUNNY   38  33  80 W9        29.81S WCI  32
STATESBORO     PTCLDY    43  26  50 W10       29.83R
SAVANNAH       CLEAR     39  32  76 W9        29.83R WCI  33


...SOUTHERN NORTH CAROLINA...

CITY           SKY/WX    TMP DP  RH WIND       PRES   REMARKS
CHARLOTTE      MOCLDY    36  27  69 W5        29.65S WCI  32
MONROE         CLOUDY    34  32  92 CALM      29.65S
WADESBORO      LGT RAIN  37  35  90 CALM      29.65S
ROCKINGHAM     CLOUDY    35  34  98 CALM      29.64S FOG
RUTHERFORDTON  CLOUDY    33  19  54 W9G18     29.67R WCI  26
ASHEVILLE      FLURRIES  27  19  72 N12       29.65S WCI  17

$$



USA.gov is the U.S. government's official web portal to all federal, state and local government web resources and services.